Location: Chwa?owice
(50.0653°N, 18.5556°E)
Time: 19:54:05
(UTC+00:00)

Daily predictions for brighter satellites

Satellite Brightness Start Highest point End
(mag) Time Altitude Azimuth Time Altitude Azimuth Time Altitude Azimuth
Cosmos 405 3.6 18:12:52 10° SSE 18:16:02 34° E 18:19:12 10° NNE
Cosmos 2322 Rocket 3.9 18:12:11 10° NW 18:17:14 34° WSW 18:22:18 10° SSW
BREEZE M DEB (TANK) 4.4 18:06:05 10° SW 18:17:38 36° SSE 18:21:28 10° E
CZ-4 R/B 4.0 18:14:40 10° SSW 18:18:08 25° W 18:21:37 10° NW
OBJECT-B 0.9 18:15:05 10° SSE 18:18:15 60° ENE 18:21:28 10° N
Cosmos 2098 Rocket 4.4 18:11:44 10° N 18:18:41 67° ENE 18:26:05 10° SSE
SL-27 R/B 3.6 18:16:24 10° SW 18:19:49 49° WNW 18:23:11 10° NNE
Cosmos 1892 2.6 18:16:04 10° N 18:19:52 76° E 18:23:38 10° SSE
ATLAS 2AS CENTAUR R/B 3.1 18:12:24 10° SSW 18:20:07 59° ESE 18:27:42 10° NE
Cosmos 2251 Rocket 4.4 18:17:06 10° SSE 18:21:34 28° E 18:26:02 10° NE
Cosmos 2333 Rocket 2.3 18:15:46 10° NNW 18:21:35 84° ENE 18:27:20 10° SSE
Cosmos 1634 Rocket 4.4 18:16:38 10° SSE 18:22:27 42° E 18:28:15 10° NNE
Cosmos 1606 Rocket 3.5 18:18:09 10° S 18:22:31 82° E 18:26:54 10° NNE
Cosmos 2297 Rocket 3.9 18:22:22 10° ESE 18:24:01 11° E 18:25:41 10° ENE
BREEZE-M DEB (TANK) 3.7 18:23:36 10° SSW 18:26:41 16° SSE 18:28:34 10° ESE
SPOT 3 Rocket 4.3 18:23:53 10° SE 18:28:36 37° ENE 18:33:20 10° N
Cosmos 389 Rocket 4.3 18:26:50 10° ESE 18:28:46 14° E 18:30:44 10° NE
Cosmos 2322 3.8 18:26:54 10° NNW 18:32:36 81° WSW 18:38:14 10° SSE
Cosmos 1825 2.4 18:29:05 10° N 18:32:46 49° ENE 18:36:27 10° SSE
Cosmos 1726 Rocket 3.5 18:28:39 10° S 18:33:02 83° E 18:37:25 10° NNE
Helios 1A Rocket 4.3 18:29:57 10° S 18:33:47 40° W 18:37:42 10° NNW
Ariane Rocket 3.0 18:29:23 10° SSE 18:34:24 72° ENE 18:39:27 10° NNW
CZ-4C R/B 2.8 18:29:24 10° WSW 18:34:29 62° NW 18:40:42 10° NE
ARIANE 5 R/B 4.4 18:32:07 10° E 18:34:58 17° ENE 18:37:49 10° NNE
Cosmos 2344 3.8 18:28:19 10° S 18:35:19 44° ESE 18:42:37 10° NE
Cosmos 1269 Rocket 4.3 18:31:18 10° SSW 18:36:36 76° WNW 18:41:57 10° NNE
Cosmos 2228 3.7 18:35:07 10° SSW 18:39:24 59° WNW 18:43:41 10° N
Cosmos 1408 2.6 18:37:46 10° NNW 18:41:21 79° W 18:44:55 10° S
Cosmos 482 Debris 2.7 18:40:39 10° WSW 18:43:18 80° SSE 18:45:07 12° ENE
RESURS DK-1 2.8 18:41:51 10° S 18:45:43 40° ESE 18:49:37 10° NE
Landsat 7 4.5 18:41:45 11° SE 18:45:56 38° ENE 18:50:22 10° N
Meteor 2-19 Rocket 4.5 18:40:27 10° N 18:46:39 82° E 18:52:49 10° SSE
SL-16 R/B 3.8 18:47:00 10° NNW 18:51:31 23° NE 18:55:59 10° E
Cosmos 2058 2.9 18:48:15 10° N 18:52:28 77° ENE 18:56:38 10° SSE
Cosmos 1980 4.2 18:47:50 10° NNW 18:53:23 49° NE 18:57:53 15° SE
CZ-2C R/B 4.3 18:48:45 10° N 18:53:30 38° WNW 18:58:16 10° SW
Cosmos 1992 Rocket 4.3 18:50:51 10° NNW 18:56:03 71° WSW 19:01:13 10° SSE
Cosmos 614 Rocket 4.5 18:52:03 10° S 18:56:45 37° ESE 19:01:26 10° NE
Cosmos 2360 Rocket 4.1 18:53:25 10° NW 18:58:08 28° WSW 19:02:50 10° SSW
Cosmos 2058 Rocket 3.1 18:54:38 10° S 18:59:01 87° WNW 19:03:24 10° N
ATLAS 3B R/B 2.9 18:52:25 10° NW 18:59:25 82° SW 19:05:56 14° SE
COSMOS 2428 3.0 18:56:20 10° NNW 19:02:05 71° WSW 19:07:47 10° SSE
COSMOS 2487 2.9 18:59:49 10° SSW 19:03:10 60° WNW 19:06:35 10° NNE
USA 186 4.2 19:01:03 10° SSW 19:03:38 22° W 19:06:10 10° NW
USA 215 3.3 18:58:18 14° ESE 19:04:03 84° NNE 19:10:38 10° WNW
Cosmos 1092 Rocket 4.4 18:59:10 10° NNW 19:05:24 66° W 19:11:31 10° S
Cosmos 2151 3.8 19:02:22 10° N 19:06:20 34° ENE 19:08:42 20° SE
Cosmos 192 4.4 19:05:00 10° NNW 19:09:57 64° ENE 19:13:27 19° SE
Cosmos 1076 Rocket 3.5 19:05:42 10° N 19:10:03 64° ENE 19:13:18 17° SSE
Cosmos 1818 3.6 19:08:00 10° SSW 19:13:19 57° ESE 19:18:41 10° NE
IRIDIUM 114 4.4 19:08:43 10° SSE 19:13:46 56° E 19:18:53 10° NNE
Cosmos 1812 Rocket 4.0 19:10:52 15° SSE 19:14:08 42° E 19:18:21 10° NNE
NOSS 0 Rocket 3.9 19:07:53 10° NNW 19:14:10 89° ENE 19:19:06 17° SSE
FALCON 9 DEB 3.5 19:11:14 10° SW 19:14:28 41° SSE 19:16:30 19° E
Cosmos 909 Rocket 4.0 19:08:55 10° SSW 19:15:06 59° ESE 19:21:27 10° NE
Cosmos 2219 Rocket 3.0 19:09:55 10° NW 19:15:23 49° WSW 19:20:49 10° S
Resurs 01 Rocket 1.6 19:12:46 13° SSE 19:16:40 89° SW 19:21:11 10° NNW
Cosmos 407 Rocket 4.2 19:13:31 16° SSE 19:16:45 31° ESE 19:21:15 10° NE
ERS-1 Rocket 4.0 19:14:40 19° ESE 19:17:21 30° ENE 19:21:42 10° N
Cosmos 44 3.4 19:12:39 10° SSW 19:17:45 68° SE 19:23:07 10° NE
SL-24 R/B - RUBIN 2 4.5 19:11:09 10° SSW 19:17:49 77° SE 19:24:08 10° NE
Cosmos 1455 3.0 19:16:43 10° SSW 19:20:21 51° WNW 19:24:03 10° N
IRIDIUM 103 4.3 19:17:50 11° S 19:22:53 66° E 19:28:05 10° N
ATLAS 5 CENTAUR R/B 4.0 19:21:45 10° WNW 19:25:16 23° NNW 19:29:14 10° NNE
Cosmos 1633 2.7 19:25:11 10° N 19:28:45 55° ENE 19:30:04 33° SE
CARTOSAT-1 4.2 19:27:16 26° ESE 19:29:08 40° ENE 19:33:11 10° N
Cosmos 1356 3.7 19:26:43 10° NNW 19:30:08 64° W 19:32:13 21° S
IGS 5A 3.5 19:27:42 18° S 19:30:43 78° WSW 19:34:53 10° NNW
Cosmos 1809 Rocket 4.4 19:26:01 10° N 19:32:09 84° E 19:36:59 17° SSE
Lacrosse 5 rocket 3.0 19:29:14 10° WNW 19:33:03 33° N 19:37:02 10° ENE
COSMOS 2455 4.3 19:35:12 17° E 19:35:12 17° E 19:38:19 10° ENE
Cosmos 405 Rocket 3.3 19:30:30 10° NNW 19:34:29 59° W 19:37:21 17° S
BREEZE-M DEB (TANK) 4.0 19:25:33 10° W 19:39:40 85° S 19:42:11 25° E
IRIDIUM 106 4.3 19:36:07 11° S 19:41:11 88° W 19:46:26 10° N
Cosmos 1140 Rocket 3.8 19:38:38 24° SSE 19:41:16 43° ESE 19:46:06 10° NE
SPOT 5 3.3 19:40:17 29° ESE 19:42:01 42° ENE 19:46:30 10° N
Cosmos 2237 Rocket 2.2 19:36:41 10° NNW 19:42:22 87° WSW 19:45:36 27° SSE
Cosmos 2279 Rocket 4.0 19:36:32 10° S 19:42:43 85° W 19:48:57 10° N
Spot 2 Rocket 3.5 19:41:32 28° SSE 19:44:15 71° ENE 19:49:20 10° N
BREEZE-M DEB (TANK) 3.8 19:40:51 10° W 19:45:10 58° S 19:48:44 23° ESE
BREEZE-M DEB (TANK) 4.4 19:43:26 10° WSW 19:47:13 84° S 19:59:09 10° E
CZ-2C R/B 3.5 19:42:48 10° NNE 19:47:17 81° ESE 19:50:38 17° SSW
Terra 2.5 19:50:06 30° ESE 19:51:37 39° ENE 19:56:02 10° N
Meteor 2-14 Rocket 4.4 19:46:16 10° NNW 19:52:22 84° W 19:56:27 22° S
MetOp-B 4.5 19:52:09 19° S 19:55:58 62° WSW 20:01:18 10° NNW
Cosmos 2227 Rocket 2.4 19:57:04 29° SSE 19:59:36 47° ESE 20:05:00 10° NE
SPOT 1/Viking Rocket 3.7 19:58:13 25° S 20:01:18 70° WSW 20:06:33 10° NNW
Cosmos 389 Rocket 3.5 20:00:14 14° SW 20:03:01 45° WNW 20:06:29 10° N
Cosmos 2251 Rocket 4.4 19:58:20 10° SW 20:03:34 52° WNW 20:08:48 10° NNE
Cosmos 2333 Rocket 4.4 20:01:15 10° WNW 20:05:08 19° W 20:08:58 10° SW
Cosmos 2266 Rocket 4.0 19:59:42 10° N 20:06:08 86° W 20:09:47 27° S
Cosmos 2297 Rocket 2.1 20:02:12 15° SSW 20:06:57 67° ESE 20:12:35 10° NNE
BREEZE-M DEB (TANK) 3.5 20:07:10 10° W 20:08:17 23° WSW 20:08:17 23° WSW
Cosmos 2219 3.1 20:05:52 21° S 20:09:36 64° ESE 20:15:11 10° NE
Cosmos 1190 Rocket 3.9 20:07:40 31° S 20:10:08 64° ESE 20:15:19 10° NNE
ARIANE 5 R/B 2.7 20:09:20 38° S 20:10:57 71° WSW 20:15:20 10° NNW
ATLAS 2AS CENTAUR R/B 3.8 20:03:40 10° WSW 20:11:22 52° NW 20:18:50 10° NE
Meteor 2-21 Rocket 4.5 20:06:56 10° NNW 20:12:59 76° W 20:16:20 28° S
Timation 2 Rocket 4.0 20:10:14 16° SSW 20:15:32 63° ESE 20:21:47 10° NE
H-2A R/B 4.0 20:13:31 10° NNE 20:17:13 42° E 20:17:13 42° E
Cosmos 1763 Rocket 3.9 20:16:52 10° NNW 20:21:48 47° ENE 20:22:57 40° E
Orbus 7S? 4.4 20:18:28 10° W 20:21:52 58° NNW 20:29:12 10° ENE
RESURS DK-1 4.5 20:20:16 10° WSW 20:23:51 28° NW 20:27:30 10° NNE
CZ-4C R/B 4.4 20:19:25 10° WNW 20:24:17 28° NNW 20:30:00 10° NE
Genesis I 3.3 20:21:10 10° NW 20:25:09 66° SW 20:25:22 64° SSW
USA 245 4.5 20:24:37 28° SW 20:25:48 34° W 20:28:58 10° NNW
Cosmos 1862 4.1 20:22:59 10° N 20:26:25 37° ENE 20:26:25 37° ENE
Cosmos-2242 3.3 20:25:50 35° SSW 20:27:30 65° WNW 20:31:49 10° N
Cosmos 676 Rocket 4.0 20:26:56 52° SE 20:27:34 56° ESE 20:32:39 10° NNE
Cosmos 1408 Rocket 3.7 20:24:40 10° N 20:28:55 52° ENE 20:29:01 52° E
JB-3 4.4 20:26:20 10° N 20:30:30 81° WNW 20:31:09 61° SSW
CRYOSAT 2 4.4 20:31:01 53° ESE 20:31:41 59° E 20:36:31 10° N
SL-16 R/B 2.1 20:30:41 10° NNW 20:36:25 89° WSW 20:37:53 52° SSE
NOSS 3-1 (C) 4.2 20:30:05 10° NW 20:37:13 64° NE 20:41:19 32° ESE
Cosmos 540 Rocket 4.2 20:36:32 10° NNW 20:41:22 40° ENE 20:42:15 37° E
Cosmos 1743 Rocket 4.2 20:40:16 10° N 20:44:08 41° ENE 20:44:08 41° ENE
USA 215 4.0 20:45:38 33° SSW 20:47:28 39° SW 20:53:33 10° WNW
Cosmos 2344 4.3 20:42:17 10° WSW 20:49:32 55° NNW 20:57:50 10° NE
Meteor 1-27 4.5 20:47:48 31° SSW 20:50:38 68° WNW 20:56:28 10° N
Cosmos 2221 3.0 20:53:18 47° NE 20:53:18 47° NE 20:56:43 10° NNE
Resurs 01 Rocket 4.3 20:52:13 10° WSW 20:53:50 12° W 20:55:29 10° WNW
Cosmos 1553 Rocket 4.1 20:54:34 50° ESE 20:55:19 53° E 21:01:14 10° NNE
ERS-1 Rocket 3.7 20:54:40 36° SW 20:55:59 44° W 21:00:49 10° NNW
Cosmos 44 Rocket 4.2 20:57:58 37° ENE 20:57:58 37° ENE 21:01:28 10° NE
Okean 3 Rocket 4.4 20:54:20 10° NNW 20:58:40 44° W 20:59:21 41° WSW
Cosmos 1500 Rocket 3.8 20:59:36 10° N 21:03:43 62° NE 21:03:43 62° NE
Cosmos 1943 3.8 21:00:38 10° NNW 21:06:04 46° NE 21:07:11 41° E
Meteor 1-4 Rocket 3.8 21:10:11 37° NW 21:10:11 37° NW 21:12:56 10° N
Meteor 2-15 4.4 21:09:37 48° SSW 21:11:24 77° W 21:17:29 10° N
ATLAS 5 CENTAUR R/B 4.5 21:08:15 10° NW 21:11:35 18° N 21:15:17 10° NE
ALOS 2 4.0 21:12:33 29° ENE 21:12:33 29° ENE 21:16:04 10° N
Lacrosse 5 rocket 2.7 21:08:57 10° NW 21:13:00 38° NNE 21:14:11 32° NE
Cosmos 1850 Rocket 4.4 21:13:53 50° ENE 21:13:53 50° ENE 21:18:15 10° NNE
Cosmos 1954 Rocket 4.2 21:12:17 44° SW 21:13:45 65° WNW 21:18:55 10° NNE
Meteor 2-2 Rocket 4.2 21:18:00 65° SSW 21:18:55 87° W 21:24:41 10° NNE
COSMOS 2455 2.7 21:18:15 58° SSW 21:19:32 86° SE 21:25:37 10° NE
SPOT 5 4.3 21:19:30 25° WSW 21:20:17 26° W 21:24:16 10° NW
SeaSat 1 2.7 21:20:34 10° NE 21:24:38 55° ENE 21:24:38 55° ENE
Cosmos 2237 Rocket 4.3 21:22:21 10° WNW 21:25:35 16° W 21:27:26 14° WSW
Terra 3.1 21:28:59 30° WSW 21:29:27 31° W 21:33:41 10° NNW
Cosmos 1606 4.3 21:34:03 31° NNE 21:34:03 31° NNE 21:36:08 10° NNE
Cosmos 2082 4.0 21:39:13 45° WSW 21:40:46 62° WNW 21:46:23 10° NNE
Cosmos 2263 Rocket 2.7 21:42:46 47° ENE 21:42:46 47° ENE 21:47:11 10° NE
Cosmos 2227 Rocket 3.5 21:38:46 11° WSW 21:43:48 37° NW 21:49:03 10° NNE
USA 229 DEB 3.8 21:37:05 10° NW 21:44:23 90° WSW 21:46:08 58° SE
USA 229 3.8 21:37:11 10° NW 21:44:29 90° NE 21:46:15 58° SE
USA 281 4.2 21:46:12 28° E 21:48:49 39° NE 21:54:51 10° NNW
Meteor 2-17 Rocket 4.4 21:43:04 10° N 21:49:13 70° ENE 21:49:41 67° ESE
Cosmos 1603 3.6 21:44:48 10° NNW 21:50:35 88° WSW 21:50:37 87° SW
Cosmos 2297 Rocket 4.0 21:46:38 10° WSW 21:51:29 29° NW 21:56:23 10° NNE
Cosmos 841 Rocket 3.6 21:46:42 10° NNW 21:51:30 65° W 21:51:30 65° W
Cosmos 1745 Rocket 4.0 21:49:32 10° NNW 21:55:49 67° W 21:56:33 62° SW
Cosmos 1814 Rocket 4.1 21:54:27 10° NNW 21:59:24 75° NW 21:59:24 75° NW
Cosmos 1709 Rocket 3.8 21:55:24 10° N 22:01:41 85° E 22:02:05 79° SE
NOSS 3-1 (A) 3.9 21:54:50 10° NW 22:02:14 82° SW 22:04:04 59° SSE
Cosmos 921 Rocket 4.0 21:58:35 10° NNW 22:01:48 44° NW 22:01:48 44° NW
Meteor 1-25 Rocket 4.1 22:02:06 10° NNW 22:07:50 87° W 22:07:50 87° W
S3M 4.1 22:08:54 59° WSW 22:09:51 68° WNW 22:16:16 10° N
Cosmos 883 Rocket 4.3 22:14:35 81° S 22:14:57 90° E 22:21:16 10° N
COBE Rocket 4.3 22:19:45 59° NNE 22:19:45 59° NNE 22:23:52 10° N
SL-16 R/B 4.1 22:16:17 10° WNW 22:19:43 17° W 22:19:46 17° W
Sich 1 4.3 22:18:03 10° NNW 22:20:54 36° NW 22:20:54 36° NW
Meteor 1-26 Rocket 4.3 22:28:00 75° E 22:28:00 75° E 22:33:44 10° NNE
NOSS 3-1 (C) 4.5 22:21:04 10° NW 22:28:09 45° WSW 22:28:42 45° SW
Cosmos 2227 4.2 22:34:45 74° WNW 22:34:52 74° WNW 22:40:40 10° NNE
Cosmos 1633 Rocket 4.1 22:31:40 10° NNW 22:34:39 42° NNW 22:34:39 42° NNW
Nimbus 7 Rocket 4.3 22:31:06 10° NNE 22:36:58 82° E 22:36:58 82° E
NOSS 2-2 (E) 4.5 22:33:06 10° NW 22:38:17 70° NE 22:39:19 59° E
Aureole 1 Rocket 4.4 22:38:07 40° W 22:38:48 42° WNW 22:43:16 10° NNE
ALOS 2 4.2 22:49:56 29° WNW 22:49:56 29° WNW 22:52:36 10° NNW
Cosmos 1943 4.3 22:44:56 10° NW 22:48:59 33° W 22:48:59 33° W
Lacrosse 5 rocket 3.4 22:48:05 10° WNW 22:49:47 23° WNW 22:49:47 23° WNW
Cosmos 1782 4.3 22:54:23 35° N 22:54:23 35° N 22:56:53 10° N
Cosmos 1328 Rocket 4.5 22:57:28 47° N 22:57:28 47° N 23:00:44 10° N
ATLAS 5 CENTAUR R/B 3.7 22:53:05 10° NW 22:57:42 32° NNE 23:03:05 10° E
Thor Agena Rocket 3.7 22:54:00 10° NNE 22:58:37 71° NNW 22:58:37 71° NNW
Cosmos 2154 Rocket 4.1 22:54:02 10° N 23:00:23 65° ENE 23:01:07 60° ESE
SeaSat 1 4.2 22:58:33 10° NNE 23:02:42 27° NW 23:04:24 22° WNW
Cosmos 1812 4.4 23:10:11 32° NNE 23:10:11 32° NNE 23:12:20 10° N
Iridium 4 Rocket 4.3 23:11:57 40° WNW 23:11:57 40° WNW 23:16:26 10° N
Cosmos 2184 Rocket 3.9 23:05:55 10° NNW 23:12:17 78° W 23:12:34 76° SW
Meteor 1-10 Rocket 4.3 23:13:34 62° E 23:13:34 62° E 23:18:51 10° NNE
Cosmos 2327 Rocket 4.4 23:12:15 10° N 23:18:33 82° E 23:19:06 74° SE
Meteor 2-12 Rocket 4.3 23:15:29 10° N 23:21:39 90° WNW 23:21:57 82° S
Cosmos 968 Rocket 3.7 23:24:12 66° NW 23:24:12 66° NW 23:29:14 10° NNE
Cosmos 773 Rocket 4.2 23:19:42 10° NNW 23:24:58 63° ENE 23:25:10 63° ENE
Cosmos 2263 Rocket 3.4 23:24:25 29° WNW 23:25:57 33° NW 23:31:00 10° NNE
Cosmos 1743 4.5 23:28:44 10° N 23:31:20 29° NE 23:31:20 29° NE
USA 281 3.3 23:33:03 57° WSW 23:33:08 57° WSW 23:39:37 10° NNW
NOSS 2-2 (D) 4.4 23:31:14 10° NW 23:36:03 66° W 23:36:03 66° W
USA 306 4.4 23:39:46 32° ENE 23:39:46 32° ENE 23:42:07 10° ENE
Cosmos 1844 Rocket 2.5 23:39:31 88° NNW 23:39:31 88° NNW 23:45:06 10° NNE
Cosmos 1486 Rocket 4.3 23:40:26 60° WNW 23:40:26 60° WNW 23:45:44 10° NNE
SL-4 R/B 3.1 23:41:43 48° ENE 23:41:43 48° ENE 23:45:20 10° E
Cosmos 1295 Rocket 4.3 23:35:34 10° NNW 23:41:50 80° W 23:42:22 73° SSW
Cosmos 2074 Rocket 4.4 23:37:16 10° NNW 23:43:12 46° W 23:43:22 46° W
Helios 1A 3.9 23:45:17 43° NNW 23:45:17 43° NNW 23:48:14 10° NNW
EO 1 Delta rocket 4.0 23:45:11 70° NE 23:45:11 70° NE 23:49:30 10° N
Cosmos 1869 Rocket 4.3 23:41:03 10° NNW 23:44:17 48° NNW 23:44:17 48° NNW
Meteor 2-6 Rocket 4.4 23:48:13 56° WNW 23:48:13 56° WNW 23:53:33 10° N
Cosmos 2082 Rocket 3.8 23:45:20 10° NNW 23:50:20 31° NE 23:55:18 10° ESE
Cosmos 1271 Rocket 3.9 23:53:58 41° N 23:53:58 41° N 23:56:39 10° N
USA 307 3.9 23:55:48 43° ENE 23:55:48 43° ENE 23:58:47 10° ENE
SJ 16-02 3.0 23:56:01 25° E 23:56:01 25° E 23:59:25 10° NE
